Time,TemperatureF,DewpointF,PressureIn,WindDirection,WindDirectionDegrees,WindSpeedMPH,WindSpeedGustMPH,Humidity,HourlyPrecipIn,Conditions,Clouds,dailyrainin,SoftwareType,DateUTC
2013-07-15 00:02:00,75.0,70.0,30.10,SSE,157,0.0,0.0,84,0.00,,,0.00,,2013-07-15 05:02:00,
2013-07-15 00:11:00,75.0,70.0,30.10,SSE,157,0.0,0.0,84,0.00,,,0.00,,2013-07-15 05:11:00,
2013-07-15 00:21:00,75.0,70.0,30.11,SSE,157,0.0,0.0,85,0.00,,,0.00,,2013-07-15 05:21:00,
2013-07-15 00:32:00,75.0,70.0,30.11,SSE,157,0.0,0.0,85,0.00,,,0.00,,2013-07-15 05:32:00,
2013-07-15 00:43:00,75.0,70.0,30.11,SSE,157,0.0,0.0,85,0.00,,,0.00,,2013-07-15 05:43:00,
2013-07-15 00:53:00,75.0,71.0,30.11,SSE,157,0.0,0.0,86,0.00,,,0.00,,2013-07-15 05:53:00,
2013-07-15 01:02:00,75.0,71.0,30.10,SSE,157,0.0,0.0,87,0.00,,,0.00,,2013-07-15 06:02:00,
2013-07-15 01:11:00,75.0,71.0,30.10,SSE,157,0.0,0.0,87,0.00,,,0.00,,2013-07-15 06:11:00,
2013-07-15 01:22:00,75.0,71.0,30.10,SSE,157,0.0,0.0,87,0.00,,,0.00,,2013-07-15 06:22:00,
2013-07-15 01:32:00,75.0,71.0,30.10,SSE,157,0.0,0.0,87,0.00,,,0.00,,2013-07-15 06:32:00,
2013-07-15 01:42:00,75.0,71.0,30.10,SSE,157,0.0,0.0,87,0.00,,,0.00,,2013-07-15 06:42:00,
2013-07-15 01:53:00,75.0,71.0,30.10,SSE,157,0.0,0.0,87,0.00,,,0.00,,2013-07-15 06:53:00,
2013-07-15 02:01:00,75.0,71.0,30.10,SSE,157,0.0,0.0,87,0.00,,,0.00,,2013-07-15 07:01:00,
2013-07-15 02:11:00,75.0,71.0,30.10,SSE,157,0.0,0.0,87,0.00,,,0.00,,2013-07-15 07:11:00,
2013-07-15 02:21:00,75.0,71.0,30.10,SSE,157,0.0,0.0,88,0.00,,,0.00,,2013-07-15 07:21:00,
2013-07-15 02:33:00,75.0,71.0,30.10,SSE,157,0.0,0.0,88,0.00,,,0.00,,2013-07-15 07:33:00,
2013-07-15 02:43:00,75.0,71.0,30.10,SSE,157,0.0,0.0,88,0.00,,,0.00,,2013-07-15 07:43:00,
2013-07-15 02:53:00,75.0,71.0,30.11,SSE,157,0.0,0.0,87,0.00,,,0.00,,2013-07-15 07:53:00,
2013-07-15 03:01:00,75.0,71.0,30.11,SSE,157,0.0,0.0,87,0.00,,,0.00,,2013-07-15 08:01:00,
2013-07-15 03:11:00,75.0,71.0,30.11,SSE,157,0.0,0.0,87,0.00,,,0.00,,2013-07-15 08:11:00,
2013-07-15 03:22:00,74.0,70.0,30.11,SSE,157,0.0,0.0,87,0.00,,,0.00,,2013-07-15 08:22:00,
2013-07-15 03:32:00,74.0,70.0,30.11,SSE,157,0.0,0.0,87,0.00,,,0.00,,2013-07-15 08:32:00,
2013-07-15 03:43:00,74.0,70.0,30.11,SSE,157,0.0,0.0,87,0.00,,,0.00,,2013-07-15 08:43:00,
2013-07-15 03:53:00,74.0,70.0,30.11,SSE,157,0.0,0.0,88,0.00,,,0.00,,2013-07-15 08:53:00,
2013-07-15 04:01:00,74.0,70.0,30.11,SSE,157,0.0,0.0,88,0.00,,,0.00,,2013-07-15 09:01:00,
2013-07-15 04:11:00,74.0,70.0,30.11,SSE,157,0.0,0.0,88,0.00,,,0.00,,2013-07-15 09:11:00,
2013-07-15 04:22:00,73.0,70.0,30.11,SSE,157,0.0,0.0,89,0.00,,,0.00,,2013-07-15 09:22:00,
2013-07-15 04:32:00,73.0,70.0,30.12,SSE,157,0.0,0.0,89,0.00,,,0.00,,2013-07-15 09:32:00,
2013-07-15 04:43:00,73.0,70.0,30.12,SSE,157,0.0,0.0,89,0.00,,,0.00,,2013-07-15 09:43:00,
2013-07-15 04:52:00,73.0,70.0,30.12,SSE,157,0.0,0.0,89,0.00,,,0.00,,2013-07-15 09:52:00,
2013-07-15 05:02:00,73.0,70.0,30.12,SSE,157,0.0,0.0,90,0.00,,,0.00,,2013-07-15 10:02:00,
2013-07-15 05:11:00,73.0,70.0,30.12,SSE,157,0.0,0.0,90,0.00,,,0.00,,2013-07-15 10:11:00,
2013-07-15 05:22:00,72.0,69.0,30.13,SSE,157,0.0,0.0,90,0.00,,,0.00,,2013-07-15 10:22:00,
2013-07-15 05:32:00,72.0,69.0,30.13,SSE,157,0.0,0.0,90,0.00,,,0.00,,2013-07-15 10:32:00,
2013-07-15 05:43:00,72.0,69.0,30.13,SSE,157,0.0,0.0,90,0.00,,,0.00,,2013-07-15 10:43:00,
2013-07-15 05:53:00,72.0,69.0,30.14,SSE,157,0.0,0.0,91,0.00,,,0.00,,2013-07-15 10:53:00,
2013-07-15 06:02:00,72.0,69.0,30.14,SSE,157,0.0,0.0,91,0.00,,,0.00,,2013-07-15 11:02:00,
2013-07-15 06:11:00,72.0,69.0,30.14,SSE,157,0.0,0.0,91,0.00,,,0.00,,2013-07-15 11:11:00,
2013-07-15 06:22:00,73.0,70.0,30.15,SSE,157,0.0,0.0,91,0.00,,,0.00,,2013-07-15 11:22:00,
2013-07-15 06:32:00,73.0,70.0,30.15,SSE,157,0.0,0.0,91,0.00,,,0.00,,2013-07-15 11:32:00,
2013-07-15 06:42:00,73.0,70.0,30.15,SSE,157,0.0,0.0,91,0.00,,,0.00,,2013-07-15 11:42:00,
2013-07-15 06:52:00,74.0,71.0,30.16,SSE,157,0.0,0.0,90,0.00,,,0.00,,2013-07-15 11:52:00,
2013-07-15 07:01:00,74.0,71.0,30.16,SSE,157,0.0,0.0,89,0.00,,,0.00,,2013-07-15 12:01:00,
2013-07-15 07:11:00,74.0,71.0,30.16,SSE,157,0.0,0.0,89,0.00,,,0.00,,2013-07-15 12:11:00,
2013-07-15 07:22:00,75.0,71.0,30.16,SSE,157,0.0,0.0,87,0.00,,,0.00,,2013-07-15 12:22:00,
2013-07-15 07:32:00,76.0,72.0,30.16,SSE,157,1.0,5.0,86,0.00,,,0.00,,2013-07-15 12:32:00,
2013-07-15 07:42:00,76.0,72.0,30.16,SSE,157,1.0,5.0,86,0.00,,,0.00,,2013-07-15 12:42:00,
2013-07-15 07:53:00,77.0,72.0,30.17,SSE,157,0.0,3.0,84,0.00,,,0.00,,2013-07-15 12:53:00,
2013-07-15 08:01:00,78.0,72.0,30.17,SSE,157,2.0,5.0,83,0.00,,,0.00,,2013-07-15 13:01:00,
2013-07-15 08:11:00,78.0,72.0,30.17,SSE,157,2.0,5.0,83,0.00,,,0.00,,2013-07-15 13:11:00,
2013-07-15 08:22:00,78.0,71.0,30.18,SE,143,2.0,6.0,80,0.00,,,0.00,,2013-07-15 13:22:00,
2013-07-15 08:33:00,79.0,72.0,30.18,SE,132,1.0,8.0,80,0.00,,,0.00,,2013-07-15 13:33:00,
2013-07-15 08:43:00,79.0,72.0,30.18,SE,132,1.0,8.0,80,0.00,,,0.00,,2013-07-15 13:43:00,
2013-07-15 08:53:00,79.0,72.0,30.18,SE,135,0.0,10.0,78,0.00,,,0.00,,2013-07-15 13:53:00,
2013-07-15 09:02:00,80.0,72.0,30.19,SE,130,1.0,6.0,77,0.00,,,0.00,,2013-07-15 14:02:00,
2013-07-15 09:11:00,80.0,72.0,30.19,SE,130,1.0,6.0,77,0.00,,,0.00,,2013-07-15 14:11:00,
2013-07-15 09:22:00,80.0,71.0,30.19,ESE,116,1.0,10.0,75,0.00,,,0.00,,2013-07-15 14:22:00,
2013-07-15 09:33:00,81.0,72.0,30.18,SE,133,2.0,5.0,74,0.00,,,0.00,,2013-07-15 14:33:00,
2013-07-15 09:42:00,81.0,72.0,30.18,SE,133,2.0,5.0,74,0.00,,,0.00,,2013-07-15 14:42:00,
2013-07-15 10:00:00,82.0,72.0,30.19,SE,130,6.0,9.0,71,0.00,,,0.00,,2013-07-15 15:00:00,
2013-07-15 10:17:00,82.0,71.0,30.19,SSE,156,5.0,8.0,70,0.00,,,0.00,,2013-07-15 15:17:00,
2013-07-15 10:27:00,84.0,72.0,30.19,ESE,112,1.0,6.0,67,0.00,,,0.00,,2013-07-15 15:27:00,
2013-07-15 10:38:00,84.0,72.0,30.19,SE,137,0.0,5.0,68,0.00,,,0.00,,2013-07-15 15:38:00,
2013-07-15 10:45:00,84.0,72.0,30.19,SE,137,0.0,5.0,68,0.00,,,0.00,,2013-07-15 15:45:00,
2013-07-15 10:53:00,85.0,72.0,30.19,SSE,167,1.0,8.0,66,0.00,,,0.00,,2013-07-15 15:53:00,
2013-07-15 11:15:00,86.0,73.0,30.19,SSE,165,0.0,3.0,65,0.00,,,0.00,,2013-07-15 16:15:00,
2013-07-15 11:24:00,86.0,71.0,30.19,SE,125,0.0,6.0,62,0.00,,,0.00,,2013-07-15 16:24:00,
2013-07-15 11:33:00,86.0,72.0,30.19,SSE,158,0.0,5.0,64,0.00,,,0.00,,2013-07-15 16:33:00,
2013-07-15 11:45:00,86.0,72.0,30.19,SSE,158,0.0,5.0,64,0.00,,,0.00,,2013-07-15 16:45:00,
2013-07-15 11:52:00,85.0,72.0,30.19,ESE,111,2.0,8.0,65,0.00,,,0.00,,2013-07-15 16:52:00,
2013-07-15 12:05:00,86.0,72.0,30.18,NE,37,1.0,9.0,64,0.00,,,0.00,,2013-07-15 17:05:00,
2013-07-15 12:13:00,86.0,72.0,30.18,NE,37,1.0,9.0,64,0.00,,,0.00,,2013-07-15 17:13:00,
2013-07-15 12:23:00,86.0,73.0,30.18,SSE,157,1.0,9.0,65,0.00,,,0.00,,2013-07-15 17:23:00,
2013-07-15 12:36:00,86.0,72.0,30.18,SSE,163,1.0,5.0,64,0.00,,,0.00,,2013-07-15 17:36:00,
2013-07-15 13:00:00,86.0,71.0,30.18,ESE,117,1.0,10.0,62,0.00,,,0.00,,2013-07-15 18:00:00,
2013-07-15 13:05:00,86.0,72.0,30.18,ESE,117,0.0,1.0,64,0.00,,,0.00,,2013-07-15 18:05:00,
2013-07-15 13:16:00,86.0,72.0,30.18,ESE,117,0.0,1.0,64,0.00,,,0.00,,2013-07-15 18:16:00,
2013-07-15 13:27:00,87.0,72.0,30.17,ESE,118,5.0,10.0,61,0.00,,,0.00,,2013-07-15 18:27:00,
2013-07-15 13:37:00,86.0,71.0,30.18,SE,137,2.0,9.0,62,0.00,,,0.00,,2013-07-15 18:37:00,
2013-07-15 13:45:00,86.0,71.0,30.18,SE,137,2.0,9.0,62,0.00,,,0.00,,2013-07-15 18:45:00,
2013-07-15 13:59:00,86.0,70.0,30.17,ESE,120,3.0,9.0,60,0.00,,,0.00,,2013-07-15 18:59:00,
2013-07-15 14:05:00,85.0,71.0,30.18,East,98,1.0,5.0,63,0.00,,,0.00,,2013-07-15 19:05:00,
2013-07-15 14:11:00,85.0,71.0,30.18,East,98,1.0,5.0,63,0.00,,,0.00,,2013-07-15 19:11:00,
2013-07-15 14:24:00,86.0,72.0,30.17,SE,130,2.0,10.0,64,0.00,,,0.00,,2013-07-15 19:24:00,
2013-07-15 14:35:00,87.0,73.0,30.16,SSW,197,0.0,3.0,63,0.00,,,0.00,,2013-07-15 19:35:00,
2013-07-15 14:46:00,87.0,73.0,30.16,SSW,197,0.0,3.0,63,0.00,,,0.00,,2013-07-15 19:46:00,
2013-07-15 14:56:00,87.0,72.0,30.16,SE,137,2.0,10.0,62,0.00,,,0.00,,2013-07-15 19:56:00,
2013-07-15 15:06:00,87.0,72.0,30.16,SE,139,3.0,9.0,61,0.00,,,0.00,,2013-07-15 20:06:00,
2013-07-15 15:16:00,87.0,72.0,30.16,SE,139,3.0,9.0,61,0.00,,,0.00,,2013-07-15 20:16:00,
2013-07-15 15:28:00,86.0,72.0,30.16,SSE,167,0.0,5.0,63,0.00,,,0.00,,2013-07-15 20:28:00,
2013-07-15 15:36:00,86.0,72.0,30.15,East,98,1.0,3.0,64,0.00,,,0.00,,2013-07-15 20:36:00,
2013-07-15 15:43:00,86.0,72.0,30.15,East,98,1.0,3.0,64,0.00,,,0.00,,2013-07-15 20:43:00,
2013-07-15 15:58:00,88.0,73.0,30.15,SSE,151,1.0,6.0,62,0.00,,,0.00,,2013-07-15 20:58:00,
2013-07-15 16:12:00,88.0,73.0,30.14,SSE,148,0.0,6.0,61,0.00,,,0.00,,2013-07-15 21:12:00,
2013-07-15 16:23:00,88.0,72.0,30.14,ESE,109,2.0,9.0,59,0.00,,,0.00,,2013-07-15 21:23:00,
2013-07-15 16:37:00,88.0,72.0,30.14,SE,140,2.0,9.0,59,0.00,,,0.00,,2013-07-15 21:37:00,
2013-07-15 16:47:00,88.0,72.0,30.14,SE,140,2.0,9.0,59,0.00,,,0.00,,2013-07-15 21:47:00,
2013-07-15 17:00:00,88.0,72.0,30.14,SSE,165,2.0,9.0,60,0.00,,,0.00,,2013-07-15 22:00:00,
2013-07-15 17:17:00,86.0,71.0,30.14,SE,144,0.0,9.0,62,0.00,,,0.00,,2013-07-15 22:17:00,
2013-07-15 17:22:00,86.0,72.0,30.13,SE,140,3.0,9.0,63,0.00,,,0.00,,2013-07-15 22:22:00,
2013-07-15 17:34:00,85.0,71.0,30.13,SE,141,1.0,6.0,64,0.00,,,0.00,,2013-07-15 22:34:00,
2013-07-15 17:43:00,85.0,71.0,30.13,SE,141,1.0,6.0,64,0.00,,,0.00,,2013-07-15 22:43:00,
2013-07-15 17:54:00,86.0,72.0,30.13,SSE,157,6.0,8.0,63,0.00,,,0.00,,2013-07-15 22:54:00,
2013-07-15 18:05:00,87.0,72.0,30.13,SSE,165,0.0,5.0,62,0.00,,,0.00,,2013-07-15 23:05:00,
2013-07-15 18:13:00,87.0,72.0,30.13,SSE,165,0.0,5.0,62,0.00,,,0.00,,2013-07-15 23:13:00,
2013-07-15 18:27:00,85.0,72.0,30.13,SSE,164,2.0,9.0,65,0.00,,,0.00,,2013-07-15 23:27:00,
2013-07-15 18:37:00,85.0,72.0,30.13,SE,134,0.0,3.0,65,0.00,,,0.00,,2013-07-15 23:37:00,
2013-07-15 18:46:00,85.0,72.0,30.13,SE,134,0.0,3.0,65,0.00,,,0.00,,2013-07-15 23:46:00,
2013-07-15 18:54:00,86.0,72.0,30.13,SE,132,1.0,14.0,63,0.00,,,0.00,,2013-07-15 23:54:00,
2013-07-15 19:03:00,86.0,72.0,30.13,SE,134,1.0,3.0,64,0.00,,,0.00,,2013-07-16 00:03:00,
2013-07-15 19:14:00,86.0,72.0,30.13,SE,134,1.0,3.0,64,0.00,,,0.00,,2013-07-16 00:14:00,
2013-07-15 19:25:00,86.0,72.0,30.13,SSE,156,0.0,5.0,64,0.00,,,0.00,,2013-07-16 00:25:00,
2013-07-15 19:33:00,85.0,71.0,30.13,SE,144,1.0,5.0,63,0.00,,,0.00,,2013-07-16 00:33:00,
2013-07-15 19:53:00,84.0,70.0,30.13,SE,139,0.0,5.0,63,0.00,,,0.00,,2013-07-16 00:53:00,
2013-07-15 20:07:00,84.0,70.0,30.14,SE,143,0.0,3.0,64,0.00,,,0.00,,2013-07-16 01:07:00,
2013-07-15 20:15:00,84.0,70.0,30.14,SE,143,0.0,3.0,64,0.00,,,0.00,,2013-07-16 01:15:00,
2013-07-15 20:26:00,83.0,70.0,30.13,SE,143,0.0,1.0,66,0.00,,,0.00,,2013-07-16 01:26:00,
2013-07-15 20:36:00,83.0,71.0,30.14,SE,143,0.0,3.0,68,0.00,,,0.00,,2013-07-16 01:36:00,
2013-07-15 21:01:00,82.0,71.0,30.14,SE,143,0.0,1.0,70,0.00,,,0.00,,2013-07-16 02:01:00,
2013-07-15 21:11:00,82.0,72.0,30.14,SE,143,0.0,0.0,71,0.00,,,0.00,,2013-07-16 02:11:00,
2013-07-15 21:28:00,81.0,71.0,30.15,SE,143,0.0,0.0,72,0.00,,,0.00,,2013-07-16 02:28:00,
2013-07-15 21:35:00,81.0,72.0,30.15,SE,143,0.0,1.0,73,0.00,,,0.00,,2013-07-16 02:35:00,
2013-07-15 21:47:00,81.0,72.0,30.15,SE,143,0.0,1.0,73,0.00,,,0.00,,2013-07-16 02:47:00,
2013-07-15 21:54:00,81.0,72.0,30.16,SE,143,0.0,1.0,74,0.00,,,0.00,,2013-07-16 02:54:00,
2013-07-15 22:07:00,80.0,71.0,30.16,SE,143,0.0,0.0,74,0.00,,,0.00,,2013-07-16 03:07:00,
2013-07-15 22:15:00,80.0,71.0,30.16,SE,143,0.0,0.0,74,0.00,,,0.00,,2013-07-16 03:15:00,
2013-07-15 22:28:00,79.0,71.0,30.17,SE,143,0.0,0.0,77,0.00,,,0.00,,2013-07-16 03:28:00,
2013-07-15 22:38:00,79.0,71.0,30.18,SE,143,0.0,0.0,77,0.00,,,0.00,,2013-07-16 03:38:00,
2013-07-15 22:47:00,79.0,71.0,30.18,SE,143,0.0,0.0,77,0.00,,,0.00,,2013-07-16 03:47:00,
2013-07-15 22:58:00,78.0,71.0,30.18,SE,143,0.0,0.0,79,0.00,,,0.00,,2013-07-16 03:58:00,
2013-07-15 23:01:00,78.0,71.0,30.18,SE,143,0.0,0.0,79,0.00,,,0.00,,2013-07-16 04:01:00,
2013-07-15 23:12:00,78.0,71.0,30.18,SE,143,0.0,0.0,79,0.00,,,0.00,,2013-07-16 04:12:00,
2013-07-15 23:22:00,77.0,70.0,30.18,SE,143,0.0,0.0,80,0.00,,,0.00,,2013-07-16 04:22:00,
2013-07-15 23:32:00,77.0,71.0,30.18,SE,143,0.0,0.0,81,0.00,,,0.00,,2013-07-16 04:32:00,
2013-07-15 23:43:00,77.0,71.0,30.18,SE,143,0.0,0.0,81,0.00,,,0.00,,2013-07-16 04:43:00,
2013-07-15 23:53:00,76.0,70.0,30.19,SE,143,0.0,0.0,82,0.00,,,0.00,,2013-07-16 04:53:00,